Location: Newark
(25.1987°N, 100.3705°W)
Time: 03:36:16
(UTC+00:00)

LightSail 2 - Pass Details

Date: 15 April 2020
Orbit: 695 x 719 km, 24.0° (Epoch: 28 May)

Event Time Altitude Azimuth Distance (km) Brightness Sun altitude
Exits shadow 11:17:27 22° 256° (WSW) 1,519 6.2 -14.2°
Maximum altitude 11:20:22 44° 196° (SSW) 962 5.6 -13.6°
Drops below altitude 10° 11:25:10 10° 124° (SE) 2,144 8.2 -12.5°
Sets 11:27:40 0° 118° (ESE) 3,057 9.1 -12.0°
